DW6193 Weather Reports


Display with metric or nautical units.
time (UTC)temp
F
wind
direction
speed
MPH
gust
MPH
rain 1hr
in
rain 24hr
in
rain mn
in
humidity
%
barometer
mb
20260509000528 74 112 4.0 11.0 0.00 0.00 0.00 1022.4
20260509000044 74 281 4.0 9.0 0.00 0.00 0.00 1022.5
20260508235525 76 279 3.0 9.0 0.00 0.00 0.00 1022.5
20260508235025 78 0 1.0 5.0 0.00 0.00 0.00 1022.5
20260508234541 80 118 1.0 5.0 0.00 0.00 0.00 1022.4
20260508234025 81 118 1.0 4.0 0.00 0.00 0.00 1022.4
20260508233525 79 39 1.0 4.0 0.00 0.00 0.00 1022.7
20260508233037 80 76 1.0 4.0 0.00 0.00 0.00 1022.4
20260508232524 80 0 2.0 4.0 0.00 0.00 0.00 1022.6
20260508232027 78 355 1.0 4.0 0.00 0.00 0.00 1022.4
20260508231541 80 255 1.0 6.0 0.00 0.00 0.00 1022.6
20260508231024 78 239 1.0 6.0 0.00 0.00 0.00 1022.6
20260508230523 76 108 1.0 6.0 0.00 0.00 0.00 1022.5
20260508230044 76 112 2.0 5.0 0.00 0.00 0.00 1022.6
20260508225528 77 107 2.0 7.0 0.00 0.00 0.00 1022.5
20260508225027 77 70 1.0 7.0 0.00 0.00 0.00 1022.6
20260508224544 76 108 2.0 7.0 0.00 0.00 0.00 1022.4
20260508224023 76 304 1.0 6.0 0.00 0.00 0.00 1022.6
20260508223526 75 116 2.0 6.0 0.00 0.00 0.00 1022.6
20260508223038 76 297 1.0 6.0 0.00 0.00 0.00 1022.6
20260508222523 76 285 1.0 5.0 0.00 0.00 0.00 1022.6
20260508222023 76 103 1.0 5.0 0.00 0.00 0.00 1022.5
20260508221537 76 227 1.0 5.0 0.00 0.00 0.00 1022.6
20260508221025 76 268 1.0 6.0 0.00 0.00 0.00 1022.7
20260508220526 74 236 2.0 7.0 0.00 0.00 0.00 1022.5
20260508220037 74 116 2.0 7.0 0.00 0.00 0.00 1022.6
20260508215525 76 114 1.0 7.0 0.00 0.00 0.00 1022.7
20260508215029 74 141 1.0 6.0 0.00 0.00 0.00 1022.6
20260508214542 73 0 2.0 7.0 0.00 0.00 0.00 1022.7
20260508214028 73 155 1.0 7.0 0.00 0.00 0.00 1022.7
20260508213529 72 299 1.0 7.0 0.00 0.00 0.00 1022.7
20260508213042 72 227 2.0 7.0 0.00 0.00 0.00 1022.7
20260508212528 71 255 2.0 7.0 0.00 0.00 0.00 1022.7
20260508212028 73 268 1.0 8.0 0.00 0.00 0.00 1022.7
20260508211543 72 319 1.0 8.0 0.00 0.00 0.00 1022.8
20260508211029 70 295 2.0 6.0 0.00 0.00 0.00 1022.7
20260508210528 72 2 1.0 6.0 0.00 0.00 0.00 1022.6
20260508210047 72 311 1.0 5.0 0.00 0.00 0.00 1022.6
20260508205527 71 255 1.0 6.0 0.00 0.00 0.00 1022.7
20260508205028 68 311 2.0 6.0 0.00 0.00 0.00 1022.7
20260508204545 69 198 1.0 5.0 0.00 0.00 0.00 1022.7
20260508204027 67 64 2.0 4.0 0.00 0.00 0.00 1022.8
20260508203528 68 341 1.0 6.0 0.00 0.00 0.00 1022.8
20260508203049 69 236 1.0 6.0 0.00 0.00 0.00 1022.7
20260508202528 69 128 1.0 9.0 0.00 0.00 0.00 1023.0
20260508202026 69 285 1.0 9.0 0.00 0.00 0.00 1022.9
20260508201543 68 183 2.0 9.0 0.00 0.00 0.00 1022.9
20260508201029 69 268 1.0 4.0 0.00 0.00 0.00 1022.8
20260508200528 68 99 1.0 5.0 0.00 0.00 0.00 1022.9
20260508200041 67 141 1.0 6.0 0.00 0.00 0.00 1022.8
20260508195526 65 31 2.0 6.0 0.00 0.00 0.00 1022.8
20260508195025 64 248 1.0 5.0 0.00 0.00 0.00 1022.9
20260508194537 66 293 1.0 7.0 0.00 0.00 0.00 1022.8
20260508194027 64 286 2.0 7.0 0.00 0.00 0.00 1022.9
20260508193526 66 149 1.0 5.0 0.00 0.00 0.00 1022.8
20260508193054 65 28 1.0 13.0 0.00 0.00 0.00 1023.1
20260508192529 65 268 3.0 13.0 0.00 0.00 0.00 1023.0
20260508192032 62 290 4.0 10.0 0.00 0.00 0.00 1023.0
20260508191543 62 0 1.0 6.0 0.00 0.00 0.00 1023.1
20260508191025 62 295 1.0 6.0 0.00 0.00 0.00 1023.2
20260508190528 63 227 2.0 5.0 0.00 0.00 0.00 1023.1
20260508190047 65 311 1.0 6.0 0.00 0.00 0.00 1023.2
20260508185529 67 66 1.0 8.0 0.00 0.00 0.00 1023.1
20260508185027 65 99 2.0 8.0 0.00 0.00 0.00 1023.1
20260508184548 67 0 3.0 8.0 0.00 0.00 0.00 1023.1
20260508184027 70 141 1.0 4.0 0.00 0.00 0.00 1023.0
20260508183528 69 285 1.0 4.0 0.00 0.00 0.00 1023.1
20260508183041 66 183 1.0 5.0 0.00 0.00 0.00 1023.1
20260508182529 68 200 1.0 5.0 0.00 0.00 0.00 1023.0
20260508182028 63 227 1.0 4.0 0.00 0.00 0.00 1023.0
20260508181539 61 0 1.0 7.0 0.00 0.00 0.00 1022.9
20260508181029 60 268 1.0 7.0 0.00 0.00 0.00 1022.9
20260508180527 59 283 1.0 5.0 0.00 0.00 0.00 1023.0
20260508180044 60 268 2.0 5.0 0.00 0.00 0.00 1022.9
20260508175527 63 141 2.0 6.0 0.00 0.00 0.00 1022.7
20260508175031 66 0 1.0 6.0 0.00 0.00 0.00 1022.6
20260508174558 62 268 1.0 5.0 0.00 0.00 0.00 1022.7
20260508174031 61 0 1.0 6.0 0.00 0.00 0.00 1022.6
20260508173528 60 222 2.0 9.0 0.00 0.00 0.00 1022.6
20260508173043 63 106 2.0 10.0 0.00 0.00 0.00 1022.4
20260508172528 61 131 1.0 10.0 0.00 0.00 0.00 1022.5
20260508172028 63 227 2.0 6.0 0.00 0.00 0.00 1022.5
20260508171540 62 183 1.0 5.0 0.00 0.00 0.00 1022.2
20260508171029 62 210 1.0 5.0 0.00 0.00 0.00 1022.1
20260508170528 64 0 1.0 5.0 0.00 0.00 0.00 1021.9
20260508170043 59 0 1.0 5.0 0.00 0.00 0.00 1022.0
20260508165529 60 0 1.0 6.0 0.00 0.00 0.00 1021.9
20260508165028 57 0 1.0 6.0 0.00 0.00 0.00 1021.9
20260508164547 58 250 2.0 7.0 0.00 0.00 0.00 1022.1
20260508164029 59 0 1.0 7.0 0.00 0.00 0.00 1022.0
20260508163527 57 241 1.0 8.0 0.00 0.00 0.00 1021.8
20260508163104 56 311 2.0 8.0 0.00 0.00 0.00 1021.8
20260508162528 56 243 2.0 7.0 0.00 0.00 0.00 1021.9
20260508162027 57 283 2.0 7.0 0.00 0.00 0.00 1021.7
20260508161540 56 195 1.0 7.0 0.00 0.00 0.00 1021.7
20260508161025 53 291 1.0 7.0 0.00 0.00 0.00 1022.0
20260508160530 52 261 3.0 7.0 0.00 0.00 0.00 1021.9
20260508160037 53 295 1.0 5.0 0.00 0.00 0.00 1021.8
20260508155528 53 0 0.0 9.0 0.00 0.00 0.00 1021.8
20260508155028 51 64 3.0 10.0 0.00 0.00 0.00 1021.7
20260508154537 51 227 3.0 10.0 0.00 0.00 0.00 1021.9
20260508154028 52 247 2.0 8.0 0.00 0.00 0.00 1021.9
20260508153530 51 268 2.0 8.0 0.00 0.00 0.00 1022.1
20260508153044 50 252 2.0 8.0 0.00 0.00 0.00 1022.0
20260508152524 50 264 3.0 10.0 0.00 0.00 0.00 1022.2
20260508152025 50 283 3.0 13.0 0.00 0.00 0.00 1022.1
20260508151543 49 272 7.0 13.0 0.00 0.00 0.00 1022.2
20260508151033 49 311 8.0 15.0 0.00 0.00 0.00 1022.3
20260508150525 49 251 7.0 15.0 0.00 0.00 0.00 1022.3
20260508150040 49 277 7.0 14.0 0.00 0.00 0.00 1022.4
20260508145525 49 261 5.0 11.0 0.00 0.00 0.00 1022.3
20260508145025 49 295 6.0 13.0 0.00 0.00 0.00 1022.3
20260508144540 49 295 7.0 13.0 0.00 0.00 0.00 1022.2
20260508144025 49 286 7.0 15.0 0.00 0.00 0.00 1022.3
20260508143526 49 293 6.0 15.0 0.00 0.00 0.00 1022.0
20260508143037 50 282 7.0 14.0 0.00 0.00 0.00 1022.0
20260508142524 50 183 4.0 10.0 0.00 0.00 0.00 1021.9
20260508142025 50 295 2.0 7.0 0.00 0.00 0.00 1021.9
20260508141537 50 297 4.0 9.0 0.00 0.00 0.00 1021.9
20260508141026 50 290 3.0 9.0 0.00 0.00 0.00 1021.7
20260508140525 50 265 5.0 11.0 0.00 0.00 0.00 1021.6
20260508140036 50 276 5.0 11.0 0.00 0.00 0.00 1021.3
20260508135529 50 288 6.0 11.0 0.00 0.00 0.00 1021.1
20260508135024 50 252 5.0 11.0 0.00 0.00 0.00 1021.0
20260508134544 50 286 4.0 10.0 0.00 0.00 0.00 1020.9
20260508134023 50 229 4.0 10.0 0.00 0.00 0.00 1020.8
20260508133527 50 281 4.0 10.0 0.00 0.00 0.00 1020.8
20260508133045 51 201 5.0 14.0 0.00 0.00 0.00 1020.7
20260508132523 51 265 4.0 14.0 0.00 0.00 0.00 1020.6
20260508132026 51 277 8.0 14.0 0.00 0.00 0.00 1020.5
20260508131545 51 288 8.0 12.0 0.00 0.00 0.00 1020.4
20260508131026 51 292 7.0 12.0 0.00 0.00 0.00 1020.3
20260508130527 51 279 7.0 12.0 0.00 0.00 0.00 1020.2
20260508130054 51 286 7.0 11.0 0.00 0.00 0.00 1020.1
20260508125527 51 259 7.0 12.0 0.00 0.00 0.00 1020.1
20260508125023 51 276 7.0 12.0 0.00 0.00 0.00 1020.0
20260508124536 51 303 6.0 14.0 0.00 0.00 0.00 1020.0
20260508124029 51 262 6.0 16.0 0.00 0.00 0.00 1019.9
20260508123526 51 124 7.0 16.0 0.00 0.00 0.00 1019.9
20260508123041 51 268 7.0 12.0 0.00 0.00 0.00 1020.0
20260508122526 51 284 6.0 12.0 0.00 0.00 0.00 1019.9
20260508122028 52 272 4.0 12.0 0.00 0.00 0.00 1019.9
20260508121542 52 278 5.0 12.0 0.00 0.00 0.00 1019.8
20260508121027 52 211 5.0 11.0 0.00 0.00 0.00 1019.8
20260508120525 52 262 5.0 11.0 0.00 0.00 0.00 1019.8
20260508120036 53 309 4.0 10.0 0.00 0.00 0.00 1019.9
20260508115528 53 220 4.0 10.0 0.00 0.00 0.00 1019.8
20260508115025 53 286 2.0 9.0 0.00 0.00 0.00 1019.8
20260508114537 53 295 5.0 9.0 0.00 0.00 0.00 1019.6
20260508114025 53 275 4.0 11.0 0.00 0.00 0.00 1019.6
20260508113527 53 290 4.0 11.0 0.00 0.00 0.00 1019.5
20260508113050 53 306 5.0 11.0 0.00 0.00 0.00 1019.4
20260508112524 53 259 6.0 11.0 0.00 0.00 0.00 1019.3
20260508112026 53 295 4.0 8.0 0.00 0.00 0.00 1019.4
20260508111541 54 272 4.0 8.0 0.00 0.00 0.00 1019.3
20260508111023 54 268 3.0 7.0 0.00 0.00 0.00 1019.2
20260508110525 54 288 4.0 10.0 0.00 0.00 0.00 1019.3
20260508110050 54 300 4.0 10.0 0.00 0.00 0.00 1019.2
20260508105523 54 275 3.0 7.0 0.00 0.00 0.00 1019.0
20260508105023 54 283 4.0 8.0 0.00 0.00 0.00 1018.9
20260508104536 54 285 4.0 8.0 0.00 0.00 0.00 1018.9
20260508104025 54 276 4.0 8.0 0.00 0.00 0.00 1018.7
20260508103526 54 274 4.0 9.0 0.00 0.00 0.00 1018.9
20260508103040 54 285 5.0 9.0 0.00 0.00 0.00 1018.8
20260508102526 54 295 5.0 10.0 0.00 0.00 0.00 1018.7
20260508102026 55 291 5.0 11.0 0.00 0.00 0.00 1018.8
20260508101547 55 268 6.0 11.0 0.00 0.00 0.00 1018.5
20260508101027 55 276 6.0 11.0 0.00 0.00 0.00 1018.7
20260508100526 55 286 4.0 10.0 0.00 0.00 0.00 1018.6
20260508100038 55 291 4.0 12.0 0.00 0.00 0.00 1018.6
20260508095525 55 251 4.0 12.0 0.00 0.00 0.00 1018.6
20260508095022 55 285 5.0 11.0 0.00 0.00 0.00 1018.5
20260508094550 55 285 4.0 10.0 0.00 0.00 0.00 1018.5
20260508094027 55 281 4.0 10.0 0.00 0.00 0.00 1018.6
20260508093526 55 285 4.0 10.0 0.00 0.00 0.00 1018.5
20260508093051 55 146 4.0 9.0 0.00 0.00 0.00 1018.3
20260508092527 55 286 2.0 8.0 0.00 0.00 0.00 1018.2
20260508092026 54 303 3.0 8.0 0.00 0.00 0.00 1018.1
20260508091540 55 236 0.0 4.0 0.00 0.00 0.00 1018.1
20260508091027 55 252 1.0 4.0 0.00 0.00 0.00 1018.0
20260508090527 53 243 1.0 4.0 0.00 0.00 0.00 1018.0
20260508090056 53 210 1.0 4.0 0.00 0.00 0.00 1018.1
20260508085526 54 170 1.0 4.0 0.00 0.00 0.00 1018.0
20260508085027 55 124 1.0 4.0 0.00 0.00 0.00 1017.9
20260508084536 54 149 1.0 3.0 0.00 0.00 0.00 1017.9
20260508084027 54 128 1.0 3.0 0.00 0.00 0.00 1018.0
20260508083527 55 158 1.0 3.0 0.00 0.00 0.00 1017.8
20260508083044 55 99 1.0 3.0 0.00 0.00 0.00 1017.9
20260508082527 55 124 1.0 2.0 0.00 0.00 0.00 1017.9
20260508082026 55 176 0.0 4.0 0.00 0.00 0.00 1017.8
20260508081541 55 99 0.0 4.0 0.00 0.00 0.00 1017.8
20260508081025 56 118 3.0 4.0 0.00 0.00 0.00 1017.7
20260508080526 56 131 2.0 4.0 0.00 0.00 0.00 1017.7
20260508080039 55 149 1.0 3.0 0.00 0.00 0.00 1017.7
20260508075527 55 168 1.0 3.0 0.00 0.00 0.00 1017.8
20260508075029 55 227 1.0 3.0 0.00 0.00 0.00 1017.8
20260508074541 55 0 0.0 5.0 0.00 0.00 0.00 1017.7
20260508074027 55 210 2.0 5.0 0.00 0.00 0.00 1017.7
20260508073526 56 319 1.0 5.0 0.00 0.00 0.00 1017.8
20260508073037 56 276 2.0 5.0 0.00 0.00 0.00 1017.7
20260508072527 56 250 2.0 6.0 0.00 0.00 0.00 1017.8
20260508072027 56 278 1.0 6.0 0.00 0.00 0.00 1017.8
20260508071539 56 288 3.0 6.0 0.00 0.00 0.00 1017.7
20260508071027 56 286 3.0 5.0 0.00 0.00 0.00 1017.7
20260508070527 57 290 2.0 3.0 0.00 0.00 0.00 1017.8
20260508070041 58 0 1.0 3.0 0.00 0.00 0.00 1017.8
20260508065528 58 219 1.0 3.0 0.00 0.00 0.00 1017.7
20260508065026 58 0 0.0 2.0 0.00 0.00 0.00 1017.8
20260508064544 58 64 1.0 2.0 0.00 0.00 0.00 1017.9
20260508064027 58 216 0.0 3.0 0.00 0.00 0.00 1017.8
20260508063531 58 268 1.0 3.0 0.00 0.00 0.00 1017.8
20260508063043 58 0 1.0 3.0 0.00 0.00 0.00 1017.8
20260508062527 58 268 2.0 3.0 0.00 0.00 0.00 1017.9
20260508062026 59 277 1.0 3.0 0.00 0.00 0.00 1017.8
20260508061541 59 286 0.0 4.0 0.00 0.00 0.00 1017.8
20260508061028 59 0 0.0 5.0 0.00 0.00 0.00 1017.8
20260508060527 59 288 1.0 5.0 0.00 0.00 0.00 1017.8
20260508060044 59 200 1.0 5.0 0.00 0.00 0.00 1017.8
20260508055526 59 268 2.0 5.0 0.00 0.00 0.00 1017.7
20260508055030 60 268 2.0 4.0 0.00 0.00 0.00 1017.8
20260508054602 60 0 1.0 4.0 0.00 0.00 0.00 1017.8
20260508054030 60 281 2.0 5.0 0.00 0.00 0.00 1017.8
20260508053526 60 285 1.0 5.0 0.00 0.00 0.00 1017.8
20260508053040 60 275 2.0 5.0 0.00 0.00 0.00 1017.8
20260508052527 61 239 1.0 5.0 0.00 0.00 0.00 1017.8
20260508052027 61 286 1.0 4.0 0.00 0.00 0.00 1017.7
20260508051537 61 268 1.0 5.0 0.00 0.00 0.00 1017.8
20260508051027 61 263 2.0 6.0 0.00 0.00 0.00 1017.8
20260508050527 61 268 1.0 6.0 0.00 0.00 0.00 1017.9
20260508050040 60 234 4.0 6.0 0.00 0.00 0.00 1017.7
20260508045526 60 241 4.0 6.0 0.00 0.00 0.00 1017.6
20260508045026 60 254 4.0 6.0 0.00 0.00 0.00 1017.7
20260508044543 60 255 4.0 6.0 0.00 0.00 0.00 1017.7
20260508044026 60 236 4.0 6.0 0.00 0.00 0.00 1017.8
20260508043523 60 272 4.0 6.0 0.00 0.00 0.00 1017.7
20260508043042 60 243 3.0 6.0 0.00 0.00 0.00 1017.8
20260508042523 60 250 2.0 6.0 0.00 0.00 0.00 1017.8
20260508042023 60 213 3.0 6.0 0.00 0.00 0.00 1017.8
20260508041548 60 246 3.0 6.0 0.00 0.00 0.00 1017.8
20260508041024 60 254 4.0 6.0 0.00 0.00 0.00 1017.8
20260508040524 60 245 3.0 6.0 0.00 0.00 0.00 1017.7
20260508040039 60 245 4.0 6.0 0.00 0.00 0.00 1017.6
20260508035523 60 245 3.0 6.0 0.00 0.00 0.00 1017.7
20260508035023 60 245 2.0 4.0 0.00 0.00 0.00 1017.4
20260508034540 61 239 2.0 4.0 0.00 0.00 0.00 1017.4
20260508034023 61 219 1.0 3.0 0.00 0.00 0.00 1017.4
20260508033523 61 210 1.0 4.0 0.00 0.00 0.00 1017.3
20260508033039 61 221 1.0 4.0 0.00 0.00 0.00 1017.4
20260508032529 61 231 1.0 4.0 0.00 0.00 0.00 1017.4
20260508032022 61 207 1.0 4.0 0.00 0.00 0.00 1017.2
20260508031553 62 210 1.0 4.0 0.00 0.00 0.00 1017.2
20260508031023 62 227 1.0 4.0 0.00 0.00 0.00 1017.2
20260508030523 63 219 1.0 4.0 0.00 0.00 0.00 1017.2
20260508030046 64 236 1.0 4.0 0.00 0.00 0.00 1017.3
20260508025526 63 239 2.0 4.0 0.00 0.00 0.00 1017.2
20260508025026 64 223 2.0 3.0 0.00 0.00 0.00 1017.3
20260508024536 63 243 2.0 3.0 0.00 0.00 0.00 1017.3
20260508024027 64 240 1.0 3.0 0.00 0.00 0.00 1017.3
20260508023527 65 205 1.0 4.0 0.00 0.00 0.00 1017.3
20260508023046 67 236 1.0 4.0 0.00 0.00 0.00 1017.3
20260508022526 69 227 1.0 2.0 0.00 0.00 0.00 1017.4
20260508022026 68 99 0.0 6.0 0.00 0.00 0.00 1017.4
20260508021541 69 259 1.0 6.0 0.00 0.00 0.00 1017.5
20260508021026 69 345 1.0 5.0 0.00 0.00 0.00 1017.5
20260508020526 70 99 1.0 5.0 0.00 0.00 0.00 1017.4
20260508020037 70 60 1.0 5.0 0.00 0.00 0.00 1017.5
20260508015527 70 281 1.0 5.0 0.00 0.00 0.00 1017.6
20260508015027 70 236 1.0 5.0 0.00 0.00 0.00 1017.6
20260508014537 69 39 1.0 5.0 0.00 0.00 0.00 1017.6
20260508014026 70 290 1.0 4.0 0.00 0.00 0.00 1017.6
20260508013526 71 39 0.0 2.0 0.00 0.00 0.00 1017.5
20260508013037 71 295 0.0 2.0 0.00 0.00 0.00 1017.6
20260508012526 71 183 0.0 5.0 0.00 0.00 0.00 1017.6
20260508012027 72 112 0.0 5.0 0.00 0.00 0.00 1017.7
20260508011551 70 275 2.0 5.0 0.00 0.00 0.00 1017.7
20260508011026 77 355 1.0 3.0 0.00 0.00 0.00 1017.7
20260508010526 82 255 1.0 3.0 0.00 0.00 0.00 1017.8
20260508010044 83 0 1.0 3.0 0.00 0.00 0.00 1017.8
20260508005526 84 141 1.0 4.0 0.00 0.00 0.00 1017.9
20260508005026 85 302 1.0 4.0 0.00 0.00 0.00 1018.0
20260508004539 84 243 1.0 4.0 0.00 0.00 0.00 1018.0
20260508004025 86 355 1.0 5.0 0.00 0.00 0.00 1018.0
20260508003531 83 3 1.0 6.0 0.00 0.00 0.00 1018.0
20260508003036 84 281 1.0 6.0 0.00 0.00 0.00 1018.1
20260508002529 83 295 0.0 6.0 0.00 0.00 0.00 1018.3
20260508002026 82 311 1.0 6.0 0.00 0.00 0.00 1018.2
20260508001543 80 306 1.0 5.0 0.00 0.00 0.00 1018.3
20260508001026 80 60 2.0 7.0 0.00 0.00 0.00 1018.3